SL-19 DEB, 23483

Orbit data source: Space-Track

SL-19 DEB, 23483 is space debris in LEO originally from a launch on Mon, 26 Dec 1994 UTC launched from the Tyuratam Missile And Space Complex (TTMTR). Debris objects in space refer to the collection of defunct objects orbiting the Earth. Examples of debris include non-operational satellites, rocket bodies, and fragments generated from explosions, collisions, or faulty payload assembly.

Loading next visibility...
Identifier
23483, 1994-085F
Orbit
LEO
Last TLE update
12 hours ago
Origin
Manufacturer
Unknown
Mission
Spacecraft
Bus & Motor
Unknown
Mass
Unknown
Launch date (UTC)
1994-12-26 (31 years ago)
Launch vehicle
Unknown
Launch site
Tyuratam Missile And Space Complex (TTMTR)
Object type
Payload
Rocket body
Debris
Shape & HBR
Unknown
Radar Cross Section
0.810 m², Medium (>0.1 m² and < 1m²)

Expand to show TLE details & history

TLE from 12 hours ago
0 SL-19 DEB
1 23483U 94085F   25183.62310631 -.00000038  00000-0  12463-3 0  9998
2 23483  64.7273 260.2929 0201478 228.0195 244.7582 11.22866531251241
Epoch: 2025-07-02T14:57Z
TLE epoch observation values (Epoch: 2025-07-02T14:57:16.385Z)
Latitude
57.86669°
Longitude
-113.36324°
Altitude
2,129.743 km
Speed
6.821 km/s
True Right ascension
02h 07m 25s
True Declination
57° 44' 12"
Sunlit
Object was in daylight at epoch
Visualization orbit readout
Latitude
-56.07147°
Longitude
69.97397°
Altitude
1,993.999 km
Speed
6.931 km/s
Apparent Right ascension
04h 32m 00s
Apparent Declination
-88° 39' 50"
Sunlit
Object is in daylight
Visualization observer readout
Local Sidereal Time
14:27:16
Azimuth
180.917° SSW
Elevation
-41.056°
Doppler factor
1
Orbital elements
Apogee altitude
2,214.346 km
Perigee altitude
1,874.945 km
Semi-major axis
8,422.782 km
Eccentricity
0.02015
Inclination
64.7273°
RAAN
260.2929°
Arg. of periapsis
228.0195°
True anomaly
Unknown
Mean anomaly
244.7582°
Eccentric anomaly
Unknown
Mean motion
2.80776 °/min
Orbital period
128.22 mins
BSTAR
0.00012463
Loading maneuver chart data...
Loading SW <> Apogee altitude chart data...
Loading historical data...
Loading historical data...
Loading historical data...
Loading historical data...
Loading historical data...
Loading historical data...
Loading historical data...

SL-19 DEB Visibility forecast

Observer location: undefined°, undefined°

Span
Click to sort rows by Start time (UTC) header in descending order
Start Az.
Max El. time (UTC)
Max El. Az.
Max El.
End time (UTC)
End Az.
20 mins2025-07-03 05:18:12.729Z164.4° S2025-07-03 05:28:12.729Z105.612° ESE31.153°2025-07-03 05:38:12.729Z46.935° ENE
23 mins2025-07-03 07:29:12.729Z224.888° SW2025-07-03 07:40:12.729Z296.663° NW42.904°2025-07-03 07:52:12.729Z29.261° NE
18 mins2025-07-03 09:48:12.729Z286.633° WNW2025-07-03 09:56:12.729Z332.035° NNW24.628°2025-07-03 10:06:12.729Z28.662° NE
16 mins2025-07-03 12:08:12.729Z329.552° NNW2025-07-03 12:16:12.729Z14.287° NNE20.711°2025-07-03 12:24:12.729Z58.198° ENE
20 mins2025-07-03 14:23:12.729Z335.453° NNW2025-07-03 14:33:12.729Z44.83° NE36.402°2025-07-03 14:43:12.729Z114.288° SE
21 mins2025-07-03 16:36:12.729Z320.074° NNW2025-07-03 16:46:12.729Z253.273° W39.812°2025-07-03 16:57:12.729Z174.229° S
|